Miscellaneous Local Product
Issued by NWS Hastings, NE

Home | Current Version | Previous Version | Text Only | Print | Product List | Glossary On
Versions: 1 2 3 4 5 6 7 8 9 10 11 12 13 14 15 16 17 18 19 20 21 22 23 24 25 26 27 28 29 30 31 32 33 34 35 36 37 38 39 40 41 42 43 44 45 46 47 48 49 50
000
AXUS43 KGID 172302
MISGRI

GID CWA HOURLY WEATHER ROUNDUP
NATIONAL WEATHER SERVICE HASTINGS NE
500 PM CST WED DEC 17 2014

NOTE: "FAIR" INDICATES FEW OR NO CLOUDS BELOW 12,000 FEET WITH NO
SIGNIFICANT WEATHER AND/OR OBSTRUCTIONS TO VISIBILITY.

...SOUTH CENTRAL NEBRASKA...

CITY           SKY/WX    TMP DP  RH WIND       PRES   REMARKS
GRAND ISLAND   CLOUDY    25  19  78 E8        30.19S WCI  16
HASTINGS       CLOUDY    25  19  78 E7        30.16S WCI  17
KEARNEY        CLOUDY    25  19  80 E7        30.15F WCI  17
ORD            CLOUDY    22  18  85 SE6       30.16S WCI  14
YORK           CLOUDY    27  18  69 E6        30.21S WCI  20
AURORA         CLOUDY    26  20  77 E7        30.19S WCI  18
LEXINGTON      CLOUDY    23  22  95 SE7       30.13S WCI  15
HOLDREGE       CLOUDY    25  22  88 E5        30.13S WCI  19
HEBRON         CLOUDY    28  17  64 E7        30.20F WCI  20

...NEBRASKA PANHANDLE...

CITY           SKY/WX    TMP DP  RH WIND       PRES   REMARKS
CHADRON        PTCLDY    24  18  77 S6        29.98R WCI  17
ALLIANCE       CLOUDY    23  21  92 S13       29.97R WCI  11
SCOTTSBLUFF    CLEAR     20  17  88 E9        29.96R WCI   9
SIDNEY         CLOUDY    22  20  92 S12       29.97R FOG     WCI  10

...WESTERN AND NORTH CENTRAL NEBRASKA...

CITY           SKY/WX    TMP DP  RH WIND       PRES   REMARKS
VALENTINE      CLOUDY    22  19  89 S12       30.09R WCI  10
AINSWORTH      CLOUDY    21  20  96 S7        30.10S FOG     WCI  12
ONEILL         CLOUDY    20  19  95 S3        30.18S
BROKEN BOW     CLOUDY    22  19  89 SE7       30.12S WCI  13
IMPERIAL       CLOUDY    23  20  88 S6        30.05S WCI  16
NORTH PLATTE   CLOUDY    22  21  96 SE8       30.09R FOG     WCI  12
MCCOOK         CLOUDY    23  22  96 E8        30.10S FOG     WCI  14

...EASTERN NEBRASKA...

CITY           SKY/WX    TMP DP  RH WIND       PRES   REMARKS
NORFOLK        CLOUDY    25  15  66 E7        30.21F WCI  17
SO SIOUX CITY  CLOUDY    25  15  66 E7        30.28S WCI  17
TEKAMAH        CLOUDY    26  17  68 VRB3      30.28R
COLUMBUS       CLOUDY    25  12  58 E6        30.24R WCI  18
ALBION         CLOUDY    24  19  81 SE6       30.20R WCI  16
OMAHA EPPLEY   CLOUDY    28  16  60 E5        30.28S WCI  23
OFFUTT AFB     CLOUDY    28  18  66 NE5       30.26S WCI  22
MILLARD        CLOUDY    28  17  62 CALM      30.26S
LINCOLN        CLOUDY    26  17  68 E6        30.26R WCI  19
NEBRASKA CITY  CLOUDY    26  15  64 CALM      30.26R
BEATRICE       CLOUDY    28  19  69 E6        30.22F WCI  21
FALLS CITY     CLOUDY    28  19  69 E6        30.26S WCI  22

...NORTHERN KANSAS...

CITY           SKY/WX    TMP DP  RH WIND       PRES   REMARKS
GOODLAND       FOG       25  24  96 E7        30.02R VSB 1/4 WCI  17
HILL CITY      CLOUDY    29  23  78 E12       30.10F WCI  19
NORTON         CLOUDY    25  19  80 E10       30.10F WCI  15
PHILLIPSBURG   CLOUDY    30  25  80 E12       30.15S WCI  21
SMITH CENTER   PTCLDY    25  19  80 E8        30.17S WCI  16
BELOIT         CLOUDY    28  19  69 E8        30.18S WCI  20
HAYS           CLOUDY    30  19  64 E14       30.10S WCI  20
RUSSELL        CLOUDY    29  24  82 E13       30.11F WCI  19
CONCORDIA      CLOUDY    27  20  75 E8        30.19S WCI  19
SALINA         CLOUDY    28  22  78 E7        30.21R WCI  21
TOPEKA         CLOUDY    30  21  69 E6        30.25S WCI  24



USA.gov is the U.S. government's official web portal to all federal, state and local government web resources and services.